Fairfield, NJ

10:19 PM EST on February 21, 2017 (GMT -0500)
Essex County

Weather History for KCDW - January, 2014

Change the Weather History Date:

Saturday, January 18, 2014

  Actual Average Record
Temperature  
Mean Temperature 32 °F -  
Max Temperature 37 °F 34 °F 61 °F (2006)
Min Temperature 26 °F 17 °F -10 °F (1982)
Degree Days  
Heating Degree Days 34    
Moisture  
Dew Point 25 °F    
Average Humidity 75    
Maximum Humidity 96    
Minimum Humidity 57    
Precipitation  
Precipitation 0.06 in - - ()
Sea Level Pressure  
Sea Level Pressure 29.78 in    
Wind  
Wind Speed 4 mph (NW)    
Max Wind Speed 15 mph    
Max Gust Speed 23 mph    
Visibility 7 miles    
Events Fog , Snow    
Averages and records for this station are not official NWS values.
T = Trace of Precipitation, MM = Missing Value Source: NWS Daily Summary

Daily Weather History Graph

Daily Weather History Graph

Search for Another Location

Airport or City:

Trip Planner

Search our weather history database for the weather conditions in past years. The results will help you decide how hot, cold, wet, or windy it might be!

Date:

Astronomy

Jan. 18, 2014 Rise Set
Actual Time 7:18 AM EST 4:57 PM EST
Civil Twilight 6:48 AM EST 5:27 PM EST
Nautical Twilight 6:14 AM EST 6:01 PM EST
Astronomical Twilight 5:41 AM EST 6:33 PM EST
Moon 7:38 PM EST (1/18) 8:15 AM EST (1/18)
Length of Visible Light 10h 39m
Length of Day
9h 39m
Waning Gibbous, 94% of the Moon is Illuminated
Jan 18
Waning Gibbous
Jan 24
Last Quarter
Jan 30
New
Feb 6
First Quarter
Feb 14
Full

Hourly Weather History & Observations

Time (EST) Temp. Windchill Dew Point Humidity Pressure Visibility Wind Dir Wind Speed Gust Speed Precip Events Conditions
12:53 AM 32.0 °F - 26.1 °F 79% 29.88 in 9.0 mi Calm Calm - N/A   Overcast
1:53 AM 32.0 °F 28.7 °F 25.0 °F 75% 29.87 in 9.0 mi North 3.5 mph - N/A   Scattered Clouds
2:53 AM 32.0 °F - 26.1 °F 79% 29.86 in 10.0 mi Calm Calm - N/A   Overcast
3:53 AM 32.0 °F - 27.0 °F 82% 29.83 in 9.0 mi Calm Calm - 0.00 in   Overcast
4:22 AM 32.0 °F 28.7 °F 26.6 °F 80% 29.79 in 8.0 mi NNE 3.5 mph - 0.00 in   Overcast
4:53 AM 32.0 °F 28.7 °F 26.1 °F 79% 29.81 in 9.0 mi NE 3.5 mph - 0.00 in   Overcast
5:53 AM 30.9 °F 27.5 °F 26.1 °F 82% 29.78 in 8.0 mi NE 3.5 mph - N/A   Partly Cloudy
6:53 AM 32.0 °F 28.7 °F 27.0 °F 82% 29.76 in 8.0 mi NE 3.5 mph - N/A   Overcast
7:53 AM 34.0 °F 29.8 °F 28.0 °F 79% 29.74 in 8.0 mi Variable 4.6 mph - N/A   Overcast
8:17 AM 33.8 °F 30.8 °F 28.4 °F 81% 29.74 in 2.5 mi NNW 3.5 mph - 0.00 in Snow Light Snow
8:35 AM 33.8 °F 30.8 °F 28.4 °F 81% 29.74 in 3.0 mi Variable 3.5 mph - 0.00 in Snow Light Snow
8:46 AM 33.8 °F - 28.4 °F 81% 29.74 in 3.0 mi Calm Calm - 0.00 in Snow Light Snow
8:51 AM 33.8 °F - 28.4 °F 81% 29.75 in 2.5 mi Calm Calm - 0.00 in Snow Light Snow
8:53 AM 34.0 °F - 28.0 °F 79% 29.77 in 2.5 mi Calm Calm - 0.00 in Snow Light Snow
9:05 AM 33.8 °F - 28.4 °F 81% 29.75 in 0.8 mi Calm Calm - 0.01 in Snow Light Snow
9:25 AM 33.8 °F - 30.2 °F 87% 29.75 in 0.2 mi Calm Calm - 0.03 in Fog , Snow Snow
9:43 AM 32.0 °F - 30.2 °F 93% 29.76 in 0.5 mi Calm Calm - 0.04 in Fog , Snow Snow
9:53 AM 32.0 °F - 30.9 °F 96% 29.77 in 0.8 mi Calm Calm - 0.05 in Snow Light Snow
10:01 AM 32.0 °F - 30.2 °F 93% 29.75 in 0.5 mi Calm Calm - 0.00 in Fog , Snow Light Snow
10:18 AM 33.8 °F 29.6 °F 30.2 °F 87% 29.74 in 1.2 mi WNW 4.6 mph - 0.00 in Snow Light Snow
10:43 AM 33.8 °F 27.7 °F 30.2 °F 87% 29.73 in 2.5 mi NW 6.9 mph - 0.01 in   Overcast
10:45 AM 33.8 °F 28.6 °F 30.2 °F 87% 29.73 in 3.0 mi WNW 5.8 mph - 0.01 in   Overcast
10:53 AM 34.0 °F 29.8 °F 30.0 °F 85% 29.75 in 5.0 mi NW 4.6 mph - 0.01 in   Overcast
11:53 AM 35.1 °F 27.9 °F 28.0 °F 76% 29.73 in 7.0 mi NW 9.2 mph - 0.00 in   Overcast
12:02 PM 35.6 °F 29.2 °F 28.4 °F 75% 29.70 in 6.0 mi NW 8.1 mph - 0.00 in   Overcast
12:39 PM 35.6 °F 28.0 °F 26.6 °F 70% 29.70 in 10.0 mi NW 10.4 mph 18.4 mph 0.00 in   Overcast
12:53 PM 37.0 °F 29.8 °F 28.0 °F 70% 29.72 in 10.0 mi NW 10.4 mph 20.7 mph 0.00 in   Overcast
1:38 PM 37.4 °F 28.5 °F 24.8 °F 60% 29.69 in 10.0 mi NW 15.0 mph 21.9 mph N/A   Partly Cloudy
1:53 PM 37.0 °F 28.5 °F 25.0 °F 62% 29.72 in 10.0 mi WNW 13.8 mph 23.0 mph N/A   Clear
2:53 PM 36.0 °F 29.6 °F 23.0 °F 59% 29.74 in 10.0 mi NNW 8.1 mph - N/A   Overcast
3:53 PM 35.1 °F 26.9 °F 21.0 °F 57% 29.77 in 10.0 mi WNW 11.5 mph - N/A   Overcast
4:53 PM 33.1 °F 24.9 °F 19.9 °F 59% 29.81 in 10.0 mi NW 10.4 mph - N/A   Overcast
5:53 PM 32.0 °F 24.2 °F 19.0 °F 59% 29.82 in 10.0 mi WNW 9.2 mph - N/A   Scattered Clouds
6:53 PM 30.9 °F 21.7 °F 18.0 °F 59% 29.83 in 10.0 mi WNW 11.5 mph 18.4 mph N/A   Overcast
7:53 PM 30.0 °F 19.5 °F 17.1 °F 59% 29.85 in 10.0 mi NW 13.8 mph 21.9 mph N/A   Overcast
8:53 PM 28.9 °F 19.8 °F 17.1 °F 61% 29.87 in 10.0 mi WNW 10.4 mph 18.4 mph N/A   Partly Cloudy
9:53 PM 28.0 °F 21.7 °F 17.1 °F 63% 29.86 in 10.0 mi WNW 5.8 mph - N/A   Mostly Cloudy
10:53 PM 27.0 °F 20.5 °F 16.0 °F 63% 29.87 in 10.0 mi WNW 5.8 mph - N/A   Clear
11:38 PM 26.6 °F 19.1 °F 15.8 °F 64% 29.88 in 10.0 mi West 6.9 mph - N/A   Mostly Cloudy
11:53 PM 27.0 °F 18.0 °F 15.1 °F 61% 29.90 in 10.0 mi WNW 9.2 mph - N/A   Overcast